CW2274 Weather Reports


Display with metric or nautical units.
time (UTC)temp
F
wind
direction
speed
MPH
gust
MPH
rain 1hr
in
rain 24hr
in
rain mn
in
humidity
%
barometer
mb
20260510075528 78 58 0.0 4.0 0.00 0.00 0.00 17 1013.2
20260510075023 79 58 2.0 5.0 0.00 0.00 0.00 16 1013.1
20260510074519 79 54 2.0 4.0 0.00 0.00 0.00 16 1013.1
20260510074015 80 329 2.0 3.0 0.00 0.00 0.00 15 1013.1
20260510073530 81 328 1.0 3.0 0.00 0.00 0.00 14 1013.1
20260510073030 84 298 0.0 7.0 0.00 0.00 0.00 13 1013.0
20260510072526 84 290 3.0 7.0 0.00 0.00 0.00 12 1012.9
20260510072021 84 292 3.0 10.0 0.00 0.00 0.00 12 1012.9
20260510071517 85 281 5.0 10.0 0.00 0.00 0.00 12 1012.9
20260510071013 85 297 4.0 10.0 0.00 0.00 0.00 12 1013.0
20260510070529 85 275 4.0 10.0 0.00 0.00 0.00 12 1013.0
20260510070036 85 282 6.0 14.0 0.00 0.00 0.00 12 1012.9
20260510065521 85 277 7.0 14.0 0.00 0.00 0.00 12 1012.9
20260510065017 85 276 7.0 14.0 0.00 0.00 0.00 12 1012.9
20260510064513 85 262 7.0 21.0 0.00 0.00 0.00 12 1013.0
20260510064028 85 268 7.0 21.0 0.00 0.00 0.00 12 1012.9
20260510063524 85 275 7.0 15.0 0.00 0.00 0.00 12 1012.9
20260510063020 85 239 9.0 18.0 0.00 0.00 0.00 12 1012.8
20260510062516 86 260 7.0 18.0 0.00 0.00 0.00 12 1012.8
20260510062015 86 277 10.0 16.0 0.00 0.00 0.00 12 1012.7
20260510061511 85 286 8.0 15.0 0.00 0.00 0.00 12 1012.6
20260510061027 85 269 8.0 16.0 0.00 0.00 0.00 12 1012.6
20260510060523 86 273 9.0 16.0 0.00 0.00 0.00 12 1012.7
20260510060031 86 258 6.0 13.0 0.00 0.00 0.00 12 1012.6
20260510055512 85 263 6.0 13.0 0.00 0.00 0.00 12 1012.4
20260510055027 85 279 5.0 11.0 0.00 0.00 0.00 12 1012.4
20260510054523 85 295 4.0 10.0 0.00 0.00 0.00 12 1012.4
20260510054022 85 275 5.0 10.0 0.00 0.00 0.00 12 1012.4
20260510053518 83 287 3.0 6.0 0.00 0.00 0.00 14 1012.3
20260510053014 82 289 3.0 5.0 0.00 0.00 0.00 14 1012.4
20260510052529 82 287 2.0 4.0 0.00 0.00 0.00 15 1012.1
20260510052025 81 287 2.0 4.0 0.00 0.00 0.00 15 1012.1
20260510051520 81 287 2.0 4.0 0.00 0.00 0.00 15 1012.0
20260510051016 81 287 2.0 4.0 0.00 0.00 0.00 15 1012.0
20260510050516 82 287 2.0 4.0 0.00 0.00 0.00 15 1012.0
20260510050043 83 287 2.0 4.0 0.00 0.00 0.00 14 1011.9
20260510045523 84 287 2.0 6.0 0.00 0.00 0.00 14 1011.9
20260510045018 84 287 3.0 6.0 0.00 0.00 0.00 14 1011.9
20260510044514 85 287 3.0 7.0 0.00 0.00 0.00 14 1011.8
20260510044030 84 282 3.0 7.0 0.00 0.00 0.00 14 1011.7
20260510043526 84 279 3.0 6.0 0.00 0.00 0.00 14 1011.8
20260510043026 84 279 4.0 6.0 0.00 0.00 0.00 14 1011.6
20260510042522 85 283 3.0 4.0 0.00 0.00 0.00 13 1011.6
20260510042018 84 282 2.0 4.0 0.00 0.00 0.00 13 1011.4
20260510041514 85 281 2.0 4.0 0.00 0.00 0.00 13 1011.4
20260510041029 85 281 2.0 4.0 0.00 0.00 0.00 13 1011.3
20260510040525 84 282 3.0 6.0 0.00 0.00 0.00 13 1011.3
20260510040033 85 282 3.0 6.0 0.00 0.00 0.00 13 1011.3
20260510035519 85 284 3.0 4.0 0.00 0.00 0.00 13 1011.1
20260510035014 85 283 2.0 4.0 0.00 0.00 0.00 13 1011.2
20260510034530 86 283 3.0 4.0 0.00 0.00 0.00 12 1011.1
20260510034026 86 283 3.0 4.0 0.00 0.00 0.00 12 1011.0
20260510033521 86 285 3.0 6.0 0.00 0.00 0.00 12 1011.0
20260510033017 87 283 3.0 6.0 0.00 0.00 0.00 12 1010.9
20260510032533 87 287 3.0 7.0 0.00 0.00 0.00 12 1010.8
20260510032028 87 289 3.0 7.0 0.00 0.00 0.00 12 1010.7
20260510031528 87 315 3.0 6.0 0.00 0.00 0.00 12 1010.5
20260510031024 85 329 2.0 5.0 0.00 0.00 0.00 13 1010.6
20260510030519 85 329 3.0 5.0 0.00 0.00 0.00 13 1010.4
20260510030046 85 331 3.0 5.0 0.00 0.00 0.00 13 1010.3
20260510025528 86 331 2.0 3.0 0.00 0.00 0.00 13 1010.3
20260510025024 86 331 2.0 3.0 0.00 0.00 0.00 12 1010.2
20260510024519 87 331 2.0 3.0 0.00 0.00 0.00 12 1010.1
20260510024019 88 331 3.0 3.0 0.00 0.00 0.00 11 1010.1
20260510023515 89 331 1.0 3.0 0.00 0.00 0.00 11 1010.0
20260510023030 89 331 2.0 3.0 0.00 0.00 0.00 11 1010.0
20260510022527 90 331 1.0 2.0 0.00 0.00 0.00 11 1009.9
20260510022023 91 331 1.0 2.0 0.00 0.00 0.00 10 1009.9
20260510021519 91 331 1.0 3.0 0.00 0.00 0.00 10 1009.9
20260510021014 91 331 1.0 5.0 0.00 0.00 0.00 10 1009.8
20260510020514 92 327 2.0 5.0 0.00 0.00 0.00 10 1009.9
20260510020042 92 324 1.0 5.0 0.00 0.00 0.00 10 1009.6
20260510015523 92 329 1.0 5.0 0.00 0.00 0.00 10 1009.6
20260510015019 93 329 2.0 11.0 0.00 0.00 0.00 10 1009.6
20260510014515 93 17 3.0 11.0 0.00 0.00 0.00 9 1009.6
20260510014031 93 322 1.0 5.0 0.00 0.00 0.00 9 1009.6
20260510013526 94 295 3.0 5.0 0.00 0.00 0.00 9 1009.6
20260510013026 94 303 1.0 4.0 0.00 0.00 0.00 9 1009.6
20260510012522 94 302 2.0 6.0 0.00 0.00 0.00 9 1009.6
20260510012017 94 310 2.0 7.0 0.00 0.00 0.00 9 1009.7
20260510011513 94 358 2.0 9.0 0.00 0.00 0.00 9 1009.6
20260510011029 95 340 2.0 9.0 0.00 0.00 0.00 9 1009.6
20260510010526 95 346 2.0 10.0 0.00 0.00 0.00 9 1009.6
20260510010033 95 316 2.0 10.0 0.00 0.00 0.00 9 1009.5
20260510005518 96 288 4.0 8.0 0.00 0.00 0.00 9 1009.6
20260510005014 96 288 2.0 6.0 0.00 0.00 0.00 8 1009.6
20260510004530 96 346 2.0 5.0 0.00 0.00 0.00 8 1009.6
20260510004026 97 303 2.0 9.0 0.00 0.00 0.00 8 1009.5
20260510003522 97 279 4.0 9.0 0.00 0.00 0.00 8 1009.6
20260510003018 97 293 3.0 7.0 0.00 0.00 0.00 8 1009.6
20260510002514 96 352 3.0 9.0 0.00 0.00 0.00 9 1009.6
20260510002013 96 293 3.0 9.0 0.00 0.00 0.00 9 1009.7
20260510001530 96 3 4.0 8.0 0.00 0.00 0.00 9 1009.7
20260510001026 97 317 3.0 7.0 0.00 0.00 0.00 9 1009.6
20260510000522 98 294 4.0 13.0 0.00 0.00 0.00 8 1009.7
20260510000029 98 298 4.0 13.0 0.00 0.00 0.00 8 1009.7
20260509235530 98 265 5.0 12.0 0.00 0.00 0.00 8 1009.7
20260509235026 99 266 4.0 12.0 0.00 0.00 0.00 8 1009.9
20260509234522 98 300 2.0 7.0 0.00 0.00 0.00 9 1009.8
20260509234022 98 245 2.0 9.0 0.00 0.00 0.00 8 1009.8
20260509233517 98 275 5.0 9.0 0.00 0.00 0.00 8 1009.9
20260509233013 98 4 3.0 8.0 0.00 0.00 0.00 9 1010.0
20260509232529 97 36 3.0 10.0 0.00 0.00 0.00 8 1010.0
20260509232024 97 359 3.0 10.0 0.00 0.00 0.00 8 1010.0
20260509231519 98 323 2.0 7.0 0.00 0.00 0.00 9 1010.1
20260509231016 98 11 2.0 6.0 0.00 0.00 0.00 8 1010.1
20260509230516 100 273 3.0 11.0 0.00 0.00 0.00 8 1010.3
20260509230043 100 271 5.0 11.0 0.00 0.00 0.00 8 1010.3
20260509225524 100 260 5.0 14.0 0.00 0.00 0.00 8 1010.3
20260509225019 100 277 8.0 13.0 0.00 0.00 0.00 8 1010.4
20260509224516 100 324 4.0 12.0 0.00 0.00 0.00 8 1010.5
20260509224032 99 290 5.0 12.0 0.00 0.00 0.00 8 1010.5
20260509223528 99 271 4.0 9.0 0.00 0.00 0.00 9 1010.6
20260509223027 99 339 3.0 7.0 0.00 0.00 0.00 9 1010.6
20260509222523 98 339 2.0 11.0 0.00 0.00 0.00 9 1010.6
20260509222019 98 356 3.0 11.0 0.00 0.00 0.00 9 1010.8
20260509221515 99 309 2.0 7.0 0.00 0.00 0.00 9 1010.7
20260509221031 99 76 3.0 11.0 0.00 0.00 0.00 8 1010.9
20260509220526 99 270 2.0 13.0 0.00 0.00 0.00 9 1010.9
20260509220035 99 291 7.0 12.0 0.00 0.00 0.00 9 1011.1
20260509215520 98 294 3.0 11.0 0.00 0.00 0.00 9 1011.1
20260509215016 96 113 1.0 11.0 0.00 0.00 0.00 9 1011.2
20260509214531 97 65 5.0 11.0 0.00 0.00 0.00 9 1011.3
20260509214027 100 289 5.0 12.0 0.00 0.00 0.00 9 1011.4
20260509213523 100 294 6.0 12.0 0.00 0.00 0.00 9 1011.4
20260509213020 99 11 3.0 8.0 0.00 0.00 0.00 9 1011.4
20260509212516 100 349 3.0 8.0 0.00 0.00 0.00 9 1011.6
20260509212016 99 320 4.0 9.0 0.00 0.00 0.00 9 1011.6
20260509211531 99 292 4.0 9.0 0.00 0.00 0.00 9 1011.8
20260509211028 97 313 4.0 8.0 0.00 0.00 0.00 9 1012.0
20260509210524 97 353 3.0 8.0 0.00 0.00 0.00 9 1012.0
20260509210031 99 6 2.0 8.0 0.00 0.00 0.00 9 1012.1
20260509205513 99 353 3.0 10.0 0.00 0.00 0.00 9 1012.2
20260509205029 98 285 2.0 10.0 0.00 0.00 0.00 9 1012.1
20260509204524 97 38 2.0 10.0 0.00 0.00 0.00 9 1012.2
20260509204025 97 11 5.0 10.0 0.00 0.00 0.00 9 1012.4
20260509203520 98 71 3.0 9.0 0.00 0.00 0.00 9 1012.4
20260509203016 98 12 4.0 9.0 0.00 0.00 0.00 9 1012.6
20260509202532 98 279 2.0 9.0 0.00 0.00 0.00 9 1012.8
20260509202028 99 320 5.0 10.0 0.00 0.00 0.00 9 1012.7
20260509201524 98 280 4.0 10.0 0.00 0.00 0.00 9 1012.7
20260509201019 99 289 4.0 10.0 0.00 0.00 0.00 9 1012.9
20260509200519 99 229 2.0 12.0 0.00 0.00 0.00 9 1013.0
20260509200047 99 260 4.0 11.0 0.00 0.00 0.00 9 1013.1
20260509195528 99 253 3.0 9.0 0.00 0.00 0.00 9 1013.1
20260509195024 99 275 4.0 15.0 0.00 0.00 0.00 9 1013.0
20260509194520 97 309 5.0 15.0 0.00 0.00 0.00 9 1013.1
20260509194016 97 356 3.0 10.0 0.00 0.00 0.00 9 1013.2
20260509193532 100 257 3.0 11.0 0.00 0.00 0.00 10 1013.3
20260509193031 98 279 4.0 11.0 0.00 0.00 0.00 10 1013.2
20260509192527 97 267 4.0 10.0 0.00 0.00 0.00 10 1013.3
20260509192023 97 303 5.0 8.0 0.00 0.00 0.00 10 1013.4
20260509191519 96 355 3.0 10.0 0.00 0.00 0.00 10 1013.4
20260509191015 96 33 5.0 11.0 0.00 0.00 0.00 10 1013.3
20260509190531 97 350 3.0 5.0 0.00 0.00 0.00 10 1013.4
20260509190038 97 331 2.0 11.0 0.00 0.00 0.00 11 1013.5
20260509185523 98 360 4.0 11.0 0.00 0.00 0.00 10 1013.6
20260509185019 97 258 3.0 9.0 0.00 0.00 0.00 11 1013.7
20260509184515 97 271 5.0 9.0 0.00 0.00 0.00 10 1013.8
20260509184031 95 281 1.0 9.0 0.00 0.00 0.00 11 1013.8
20260509183526 97 271 4.0 8.0 0.00 0.00 0.00 10 1013.8
20260509183022 95 345 3.0 8.0 0.00 0.00 0.00 11 1013.8
20260509182518 95 306 2.0 8.0 0.00 0.00 0.00 11 1014.0
20260509182018 96 267 2.0 6.0 0.00 0.00 0.00 11 1014.1
20260509181514 93 38 4.0 6.0 0.00 0.00 0.00 11 1014.2
20260509181030 94 349 2.0 8.0 0.00 0.00 0.00 12 1014.3
20260509180526 93 350 2.0 8.0 0.00 0.00 0.00 12 1014.4
20260509180033 94 15 2.0 5.0 0.00 0.00 0.00 11 1014.4
20260509175514 92 308 1.0 6.0 0.00 0.00 0.00 12 1014.5
20260509175030 91 13 3.0 7.0 0.00 0.00 0.00 13 1014.7
20260509174526 91 44 3.0 7.0 0.00 0.00 0.00 13 1014.7
20260509174026 92 354 3.0 10.0 0.00 0.00 0.00 13 1014.7
20260509173522 93 21 4.0 10.0 0.00 0.00 0.00 13 1014.6
20260509173018 92 320 1.0 6.0 0.00 0.00 0.00 13 1014.6
20260509172513 92 305 2.0 6.0 0.00 0.00 0.00 14 1014.7
20260509172029 91 358 3.0 6.0 0.00 0.00 0.00 14 1014.7
20260509171525 90 351 0.0 9.0 0.00 0.00 0.00 15 1014.8
20260509171022 91 351 3.0 9.0 0.00 0.00 0.00 14 1014.8
20260509170522 90 332 2.0 4.0 0.00 0.00 0.00 15 1014.8
20260509170029 90 23 1.0 7.0 0.00 0.00 0.00 15 1014.7
20260509165530 89 25 1.0 7.0 0.00 0.00 0.00 16 1014.8
20260509165026 90 15 1.0 4.0 0.00 0.00 0.00 16 1014.9
20260509164522 88 15 2.0 8.0 0.00 0.00 0.00 16 1014.9
20260509164018 87 23 3.0 8.0 0.00 0.00 0.00 17 1014.9
20260509163514 88 319 1.0 3.0 0.00 0.00 0.00 18 1014.9
20260509163015 87 334 1.0 3.0 0.00 0.00 0.00 18 1015.0
20260509162531 86 46 1.0 3.0 0.00 0.00 0.00 19 1015.1
20260509162027 86 33 0.0 3.0 0.00 0.00 0.00 20 1015.1
20260509161523 85 33 2.0 4.0 0.00 0.00 0.00 19 1015.0
20260509161018 85 7 2.0 4.0 0.00 0.00 0.00 19 1015.1
20260509160514 83 102 2.0 3.0 0.00 0.00 0.00 21 1015.0
20260509160042 83 102 2.0 5.0 0.00 0.00 0.00 21 1015.0
20260509155528 84 104 1.0 4.0 0.00 0.00 0.00 22 1015.1
20260509155023 81 111 2.0 4.0 0.00 0.00 0.00 23 1015.1
20260509154519 82 112 2.0 4.0 0.00 0.00 0.00 23 1015.1
20260509154015 80 94 2.0 5.0 0.00 0.00 0.00 24 1015.2
20260509153531 80 102 2.0 5.0 0.00 0.00 0.00 24 1015.1
20260509153027 78 135 1.0 7.0 0.00 0.00 0.00 25 1015.1
20260509152524 79 92 3.0 7.0 0.00 0.00 0.00 26 1015.1
20260509152024 77 99 3.0 7.0 0.00 0.00 0.00 26 1015.1
20260509151519 77 94 3.0 5.0 0.00 0.00 0.00 26 1015.1
20260509151015 77 112 2.0 5.0 0.00 0.00 0.00 27 1015.1
20260509150531 76 119 0.0 3.0 0.00 0.00 0.00 27 1015.1
20260509150038 75 119 2.0 4.0 0.00 0.00 0.00 28 1015.1
20260509145520 74 119 2.0 4.0 0.00 0.00 0.00 28 1015.1
20260509145015 74 118 3.0 4.0 0.00 0.00 0.00 28 1015.1
20260509144515 73 137 1.0 4.0 0.00 0.00 0.00 29 1015.1
20260509144031 72 134 3.0 4.0 0.00 0.00 0.00 29 1015.1
20260509143527 72 138 3.0 4.0 0.00 0.00 0.00 30 1015.1
20260509143023 73 139 2.0 4.0 0.00 0.00 0.00 30 1015.0
20260509142519 72 135 2.0 6.0 0.00 0.00 0.00 30 1015.0
20260509142015 71 118 3.0 5.0 0.00 0.00 0.00 31 1014.9
20260509141531 71 122 3.0 6.0 0.00 0.00 0.00 31 1014.9
20260509141027 70 125 2.0 6.0 0.00 0.00 0.00 31 1014.9
20260509140527 70 111 4.0 6.0 0.00 0.00 0.00 32 1014.9
20260509140034 70 116 3.0 5.0 0.00 0.00 0.00 32 1014.9
20260509135516 69 123 2.0 5.0 0.00 0.00 0.00 33 1014.7
20260509135031 69 120 4.0 5.0 0.00 0.00 0.00 33 1014.8
20260509134527 69 123 3.0 5.0 0.00 0.00 0.00 33 1014.7
20260509134023 69 132 2.0 5.0 0.00 0.00 0.00 33 1014.7
20260509133519 68 234 2.0 4.0 0.00 0.00 0.00 34 1014.5
20260509133019 68 242 0.0 3.0 0.00 0.00 0.00 34 1014.4
20260509132515 67 242 1.0 3.0 0.00 0.00 0.00 35 1014.5
20260509132031 67 243 1.0 3.0 0.00 0.00 0.00 35 1014.5
20260509131526 67 243 0.0 2.0 0.00 0.00 0.00 35 1014.6
20260509131022 66 243 1.0 4.0 0.00 0.00 0.00 36 1014.4
20260509130518 66 244 2.0 4.0 0.00 0.00 0.00 36 1014.3
20260509130045 66 245 1.0 3.0 0.00 0.00 0.00 36 1014.3
20260509125531 66 245 1.0 4.0 0.00 0.00 0.00 36 1014.1
20260509125027 66 245 3.0 4.0 0.00 0.00 0.00 35 1014.2
20260509124524 65 246 1.0 3.0 0.00 0.00 0.00 36 1014.0
20260509124019 65 246 1.0 2.0 0.00 0.00 0.00 36 1014.1
20260509123515 65 246 1.0 2.0 0.00 0.00 0.00 36 1014.0
20260509123031 66 246 1.0 2.0 0.00 0.00 0.00 35 1014.0
20260509122527 65 247 1.0 2.0 0.00 0.00 0.00 36 1014.0
20260509122027 65 247 0.0 3.0 0.00 0.00 0.00 36 1013.9
20260509121523 66 247 1.0 3.0 0.00 0.00 0.00 35 1013.9
20260509121019 65 247 1.0 4.0 0.00 0.00 0.00 36 1013.9
20260509120515 65 248 3.0 4.0 0.00 0.00 0.00 36 1013.8
20260509120043 65 248 1.0 3.0 0.00 0.00 0.00 36 1013.8
20260509115524 65 248 1.0 3.0 0.00 0.00 0.00 36 1013.8
20260509115020 65 248 0.0 3.0 0.00 0.00 0.00 36 1013.7
20260509114520 65 248 2.0 3.0 0.00 0.00 0.00 36 1013.7
20260509114016 65 249 1.0 2.0 0.00 0.00 0.00 36 1013.8
20260509113512 65 249 0.0 0.0 0.00 0.00 0.00 37 1013.7
20260509113028 64 249 0.0 0.0 0.00 0.00 0.00 37 1013.7
20260509112523 64 249 0.0 0.0 0.00 0.00 0.00 36 1013.7
20260509112019 65 249 0.0 0.0 0.00 0.00 0.00 36 1013.5
20260509111515 65 249 0.0 0.0 0.00 0.00 0.00 36 1013.6
20260509111030 64 249 0.0 0.0 0.00 0.00 0.00 37 1013.5
20260509110527 65 249 0.0 1.0 0.00 0.00 0.00 36 1013.5
20260509110034 65 249 0.0 1.0 0.00 0.00 0.00 36 1013.4
20260509105516 65 249 0.0 1.0 0.00 0.00 0.00 34 1013.4
20260509105012 66 249 0.0 2.0 0.00 0.00 0.00 34 1013.4
20260509104527 65 249 0.0 1.0 0.00 0.00 0.00 35 1013.5
20260509104023 64 249 0.0 1.0 0.00 0.00 0.00 37 1013.4
20260509103519 65 249 0.0 0.0 0.00 0.00 0.00 36 1013.4
20260509103020 66 249 0.0 1.0 0.00 0.00 0.00 34 1013.3
20260509102515 66 249 0.0 2.0 0.00 0.00 0.00 34 1013.3
20260509102031 67 249 1.0 2.0 0.00 0.00 0.00 33 1013.4
20260509101527 67 249 1.0 2.0 0.00 0.00 0.00 33 1013.4
20260509101023 66 249 1.0 2.0 0.00 0.00 0.00 33 1013.4
20260509100519 66 249 1.0 3.0 0.00 0.00 0.00 33 1013.4
20260509100026 68 249 1.0 3.0 0.00 0.00 0.00 32 1013.4
20260509095511 69 249 0.0 6.0 0.00 0.00 0.00 31 1013.3
20260509095027 71 249 1.0 6.0 0.00 0.00 0.00 29 1013.4
20260509094523 70 266 3.0 6.0 0.00 0.00 0.00 29 1013.3
20260509094018 69 275 1.0 2.0 0.00 0.00 0.00 31 1013.3
20260509093513 71 275 1.0 2.0 0.00 0.00 0.00 29 1013.3
20260509093029 70 275 1.0 2.0 0.00 0.00 0.00 29 1013.3
20260509092525 71 275 1.0 3.0 0.00 0.00 0.00 28 1013.3
20260509092025 72 275 1.0 3.0 0.00 0.00 0.00 27 1013.3
20260509091522 72 275 2.0 3.0 0.00 0.00 0.00 27 1013.3
20260509091017 72 275 1.0 2.0 0.00 0.00 0.00 27 1013.4
20260509090513 72 275 1.0 4.0 0.00 0.00 0.00 27 1013.5
20260509090041 73 275 1.0 4.0 0.00 0.00 0.00 27 1013.4
20260509085523 72 277 2.0 4.0 0.00 0.00 0.00 28 1013.5
20260509085019 70 277 2.0 3.0 0.00 0.00 0.00 30 1013.5
20260509084519 70 277 2.0 3.0 0.00 0.00 0.00 30 1013.4
20260509084014 71 277 2.0 3.0 0.00 0.00 0.00 29 1013.5
20260509083530 73 277 2.0 3.0 0.00 0.00 0.00 26 1013.3
20260509083026 73 277 1.0 3.0 0.00 0.00 0.00 27 1013.5
20260509082522 70 277 1.0 3.0 0.00 0.00 0.00 29 1013.5
20260509082019 71 277 2.0 3.0 0.00 0.00 0.00 29 1013.5
20260509081515 71 277 2.0 2.0 0.00 0.00 0.00 29 1013.4
20260509081014 71 277 1.0 2.0 0.00 0.00 0.00 28 1013.4
20260509080530 72 277 1.0 2.0 0.00 0.00 0.00 27 1013.4
20260509080037 73 277 0.0 1.0 0.00 0.00 0.00 26 1013.4